timestamp,surface_pressure_avg,surface_temp_avg,battery_voltage,lat,long
2023-06-08 00:09:00+00:00,301.773,5.4,13.05,47.84626,-54.09684
2023-06-08 00:19:00+00:00,307.4446,5.3,12.81,47.84626,-54.09684
2023-06-08 00:29:00+00:00,319.2863,5.28,12.81,47.84626,-54.09684
2023-06-08 00:39:00+00:00,329.1863,5.2,12.81,47.84626,-54.09684
2023-06-08 00:49:00+00:00,333.793,5.24,12.81,47.84626,-54.09684
2023-06-08 00:59:00+00:00,342.0347,5.3,12.81,47.84626,-54.09684
2023-06-08 01:09:00+00:00,352.2012,5.3,12.81,47.84626,-54.09684
2023-06-08 01:19:00+00:00,355.6696,5.3,12.73,47.84626,-54.09684
2023-06-08 01:29:00+00:00,353.7096,5.46,12.73,47.84626,-54.09684
2023-06-08 01:39:00+00:00,360.8997,5.5,12.73,47.84626,-54.09684
2023-06-08 01:49:00+00:00,367.4329,5.4,12.73,47.84626,-54.09684
2023-06-08 01:59:00+00:00,367.9397,5.42,12.73,47.84626,-54.09684
2023-06-08 02:09:00+00:00,371.1912,5.5,12.73,47.84626,-54.09684
2023-06-08 02:19:00+00:00,374.2529,5.49,12.73,47.84626,-54.09684
2023-06-08 02:29:00+00:00,377.7564,5.4,12.73,47.84626,-54.09684
2023-06-08 02:39:00+00:00,378.7812,5.39,12.73,47.84626,-54.09684
2023-06-08 02:49:00+00:00,377.843,5.2,12.73,47.84626,-54.09684
2023-06-08 02:59:00+00:00,378.3379,5.2,12.73,47.84626,-54.09684
2023-06-08 03:09:00+00:00,375.4946,5.27,12.73,47.84626,-54.09684
2023-06-08 03:19:00+00:00,372.6596,5.3,12.73,47.84626,-54.09684
2023-06-08 03:29:00+00:00,370.6946,5.39,12.73,47.84626,-54.09684
2023-06-08 03:39:00+00:00,366.1379,5.35,12.73,47.84626,-54.09684
2023-06-08 03:49:00+00:00,364.5745,5.3,12.73,47.84626,-54.09684
2023-06-08 03:59:00+00:00,362.9296,5.4,12.73,47.84626,-54.09684
2023-06-08 04:09:00+00:00,359.9529,5.4,12.73,47.84626,-54.09684
2023-06-08 04:19:00+00:00,354.3863,5.3,12.65,47.84626,-54.09684
2023-06-08 04:29:00+00:00,350.4229,5.25,12.65,47.84626,-54.09684
2023-06-08 04:39:00+00:00,347.593,5.3,12.65,47.84626,-54.09684
2023-06-08 04:49:00+00:00,337.3913,5.42,12.65,47.84626,-54.09684
2023-06-08 04:59:00+00:00,325.2197,5.5,12.65,47.84626,-54.09684
2023-06-08 05:09:00+00:00,319.6864,5.5,12.65,47.84626,-54.09684
2023-06-08 05:19:01+00:00,311.8046,5.5,12.65,47.84626,-54.09684
2023-06-08 05:29:01+00:00,298.663,5.5,12.65,47.84626,-54.09684
2023-06-08 05:39:01+00:00,283.833,5.6,12.65,47.84626,-54.09684
2023-06-08 05:49:01+00:00,277.0563,5.68,12.65,47.84626,-54.09684
2023-06-08 05:59:01+00:00,268.9897,5.7,12.65,47.84626,-54.09684
2023-06-08 06:09:01+00:00,256.1164,5.7,12.65,47.84626,-54.09684
2023-06-08 06:19:00+00:00,246.9464,5.8,12.65,47.84626,-54.09684
2023-06-08 06:29:00+00:00,243.1447,5.8,12.65,47.84626,-54.09684
2023-06-08 06:39:00+00:00,235.7497,5.8,12.65,47.84626,-54.09684
2023-06-08 06:49:00+00:00,225.0497,5.95,12.65,47.84626,-54.09684
2023-06-08 06:59:00+00:00,216.7047,6.03,12.65,47.84626,-54.09684
2023-06-08 07:09:00+00:00,212.6364,6.0,12.65,47.84626,-54.09684
2023-06-08 07:19:00+00:00,207.2131,6.06,12.65,47.84626,-54.09684
2023-06-08 07:29:00+00:00,201.7898,6.1,12.65,47.84626,-54.09684
2023-06-08 07:39:00+00:00,200.7148,6.1,12.65,47.84626,-54.09684
2023-06-08 07:49:00+00:00,199.0014,6.0,12.65,47.84626,-54.09684
2023-06-08 07:59:00+00:00,195.1865,6.0,12.65,47.84626,-54.09684
2023-06-08 08:09:00+00:00,194.5648,6.07,12.65,47.84626,-54.09684
2023-06-08 08:19:00+00:00,197.9315,6.0,12.57,47.84626,-54.09684
2023-06-08 08:29:00+00:00,197.4514,5.9,12.57,47.84626,-54.09684
2023-06-08 08:39:00+00:00,196.2415,6.0,12.57,47.84626,-54.09684
2023-06-08 08:49:00+00:00,200.5031,6.04,12.57,47.84626,-54.09684
2023-06-08 08:59:00+00:00,201.0015,6.07,12.57,47.84626,-54.09684
2023-06-08 09:09:00+00:00,199.0531,6.07,12.57,47.84626,-54.09684
2023-06-08 09:19:00+00:00,202.4931,6.0,12.65,47.84626,-54.09684
2023-06-08 09:29:00+00:00,205.2531,5.98,12.65,47.84626,-54.09684
2023-06-08 09:39:00+00:00,203.7081,6.0,12.65,47.84626,-54.09684
2023-06-08 09:49:00+00:00,203.5048,6.02,12.65,47.84626,-54.09684
2023-06-08 09:59:00+00:00,209.0031,6.0,12.65,47.84626,-54.09684
2023-06-08 10:09:00+00:00,212.208,5.9,12.65,47.84626,-54.09684
2023-06-08 10:19:00+00:00,212.3981,5.81,12.73,47.84626,-54.09684
2023-06-08 10:29:00+00:00,214.6731,5.8,12.73,47.84626,-54.09684
2023-06-08 10:39:00+00:00,217.7364,5.75,12.73,47.84626,-54.09684
2023-06-08 10:49:00+00:00,220.5498,5.7,12.73,47.84626,-54.09684
2023-06-08 10:59:00+00:00,223.7314,5.6,12.73,47.84626,-54.09684
2023-06-08 11:09:00+00:00,224.3848,5.6,12.73,47.84626,-54.09684
2023-06-08 11:19:00+00:00,226.2548,5.5,13.13,47.84626,-54.09684
2023-06-08 11:29:00+00:00,229.7931,5.5,13.13,47.84626,-54.09684
2023-06-08 11:39:00+00:00,234.1147,5.5,13.13,47.84626,-54.09684
2023-06-08 11:49:00+00:00,237.3181,5.53,13.13,47.84626,-54.09684
2023-06-08 11:59:00+00:00,240.7681,5.57,13.13,47.84626,-54.09684
2023-06-08 12:09:00+00:00,247.0547,5.57,13.13,47.84626,-54.09684
2023-06-08 12:19:00+00:00,252.8098,5.53,13.6,47.84626,-54.09684
2023-06-08 12:29:00+00:00,258.1731,5.5,13.6,47.84626,-54.09684
2023-06-08 12:39:00+00:00,264.6497,5.5,13.6,47.84626,-54.09684
2023-06-08 12:49:00+00:00,272.9114,5.5,13.6,47.84626,-54.09684
2023-06-08 12:59:00+00:00,281.0081,5.5,13.6,47.84626,-54.09684
2023-06-08 13:09:00+00:00,289.7014,5.52,13.6,47.84626,-54.09684
2023-06-08 13:19:01+00:00,297.3931,5.58,14.0,47.84626,-54.09684
2023-06-08 13:29:01+00:00,303.1163,5.6,14.0,47.84626,-54.09684
2023-06-08 13:39:01+00:00,309.8713,5.57,14.0,47.84626,-54.09684
2023-06-08 13:49:01+00:00,314.0163,5.56,14.0,47.84626,-54.09684
2023-06-08 13:59:01+00:00,314.8381,5.6,14.0,47.84626,-54.09684
2023-06-08 14:09:01+00:00,316.3514,5.6,14.0,47.84626,-54.09684
2023-06-08 14:19:00+00:00,321.4196,5.4,14.08,47.84626,-54.09684
2023-06-08 14:29:00+00:00,322.6312,5.3,14.08,47.84626,-54.09684
2023-06-08 14:39:00+00:00,324.8663,5.3,14.08,47.84626,-54.09684
2023-06-08 14:49:00+00:00,328.913,5.3,14.08,47.84626,-54.09684
2023-06-08 14:59:00+00:00,332.8562,5.3,14.08,47.84626,-54.09684
2023-06-08 15:09:00+00:00,330.8563,5.3,14.08,47.84626,-54.09684
2023-06-08 15:19:01+00:00,332.1096,5.32,14.0,47.84626,-54.09684
2023-06-08 15:29:01+00:00,335.0046,5.37,14.0,47.84626,-54.09684
2023-06-08 15:39:01+00:00,333.4397,5.38,14.0,47.84626,-54.09684
2023-06-08 15:49:01+00:00,329.8146,5.38,14.0,47.84626,-54.09684
2023-06-08 15:59:01+00:00,328.6062,5.4,14.0,47.84626,-54.09684
2023-06-08 16:09:01+00:00,326.168,5.4,14.0,47.84626,-54.09684
2023-06-08 16:19:01+00:00,320.4647,5.47,14.0,47.84626,-54.09684
2023-06-08 16:29:01+00:00,318.9314,5.52,14.0,47.84626,-54.09684
2023-06-08 16:39:01+00:00,319.228,5.59,14.0,47.84626,-54.09684
2023-06-08 16:49:01+00:00,314.2263,5.6,14.0,47.84626,-54.09684
2023-06-08 16:59:01+00:00,308.52299999999997,5.69,14.0,47.84626,-54.09684
2023-06-08 17:09:01+00:00,303.0247,5.7,14.0,47.84626,-54.09684
2023-06-08 17:19:00+00:00,297.938,5.72,13.84,47.84626,-54.09684
2023-06-08 17:29:00+00:00,291.9214,5.78,13.84,47.84626,-54.09684
2023-06-08 17:39:00+00:00,284.8631,5.85,13.84,47.84626,-54.09684
2023-06-08 17:49:00+00:00,277.1514,5.99,13.84,47.84626,-54.09684
2023-06-08 17:59:00+00:00,271.0464,6.0,13.84,47.84626,-54.09684
2023-06-08 18:09:00+00:00,263.9247,6.0,13.84,47.84626,-54.09684
2023-06-08 18:19:00+00:00,252.8464,6.0,13.76,47.84626,-54.09684
2023-06-08 18:29:00+00:00,244.4881,6.0,13.76,47.84626,-54.09684
2023-06-08 18:39:00+00:00,238.4414,5.98,13.76,47.84626,-54.09684
2023-06-08 18:49:00+00:00,232.0331,5.94,13.76,47.84626,-54.09684
2023-06-08 18:59:00+00:00,223.1165,5.9,13.76,47.84626,-54.09684
2023-06-08 19:09:00+00:00,215.1531,5.9,13.76,47.84626,-54.09684
2023-06-08 19:19:01+00:00,210.8148,5.9,13.68,47.84626,-54.09684
2023-06-08 19:29:01+00:00,206.0298,5.99,13.68,47.84626,-54.09684
2023-06-08 19:39:01+00:00,198.6098,6.0,13.68,47.84626,-54.09684
2023-06-08 19:49:01+00:00,194.2081,6.0,13.68,47.84626,-54.09684
2023-06-08 19:59:01+00:00,194.6514,6.0,13.68,47.84626,-54.09684
2023-06-08 20:09:01+00:00,193.4698,5.99,13.68,47.84626,-54.09684
2023-06-08 20:19:00+00:00,189.1614,6.0,13.53,47.84626,-54.09684
2023-06-08 20:29:00+00:00,187.5698,6.0,13.53,47.84626,-54.09684
2023-06-08 20:39:00+00:00,188.9048,6.0,13.53,47.84626,-54.09684
2023-06-08 20:49:00+00:00,189.1581,6.0,13.53,47.84626,-54.09684
2023-06-08 20:59:00+00:00,190.9431,6.1,13.53,47.84626,-54.09684
2023-06-08 21:09:00+00:00,194.0298,6.19,13.53,47.84626,-54.09684
2023-06-08 21:19:01+00:00,196.2898,6.2,13.37,47.84626,-54.09684
2023-06-08 21:29:01+00:00,197.7914,6.2,13.37,47.84626,-54.09684
2023-06-08 21:39:01+00:00,201.8681,6.2,13.37,47.84626,-54.09684
2023-06-08 21:49:01+00:00,206.2831,6.21,13.37,47.84626,-54.09684
2023-06-08 21:59:01+00:00,206.1931,6.26,13.37,47.84626,-54.09684
2023-06-08 22:09:01+00:00,203.0865,6.29,13.37,47.84626,-54.09684
2023-06-08 22:19:01+00:00,205.8015,6.29,13.21,47.84626,-54.09684
2023-06-08 22:29:01+00:00,209.3748,6.3,13.21,47.84626,-54.09684
2023-06-08 22:39:01+00:00,209.7848,6.43,13.21,47.84626,-54.09684
2023-06-08 22:49:01+00:00,212.9764,6.6,13.21,47.84626,-54.09684
2023-06-08 22:59:01+00:00,220.6814,6.74,13.21,47.84626,-54.09684
2023-06-08 23:09:01+00:00,225.7915,6.8,13.21,47.84626,-54.09684
2023-06-08 23:19:00+00:00,229.0514,6.9,12.97,47.84626,-54.09684
2023-06-08 23:29:00+00:00,235.2898,7.0,12.97,47.84626,-54.09684
2023-06-08 23:39:00+00:00,242.2064,7.06,12.97,47.84626,-54.09684
2023-06-08 23:49:00+00:00,242.7514,7.18,12.97,47.84626,-54.09684
2023-06-08 23:59:00+00:00,244.3631,7.34,12.97,47.84626,-54.09684
